QPF
0.00 0.00 0.00 0.00 0.00 0.00 0.00 0.00 0.00 0.00 0.00 0.00 0.00 0.00 0.00 0.00 0.00 0.00 0.00 0.00 0.00 0.00 0.00 0.00 0.00 0.01 0.01 0.01 0.00 0.00 0.00 0.01 0.01 0.00 0.00 0.01 0.01 0.01 0.02 0.02 0.03 0.03 0.02
0.00 0.00 0.00 0.00 0.00 0.00 0.00 0.00 0.00 0.00 0.00 0.00 0.00 0.00 0.00 0.00 0.00 0.00 0.00 0.00 0.00 0.00 0.00 0.00 0.00 0.00 0.00 0.00 0.01 0.00 0.00 0.01 0.01 0.00 0.00 0.01 0.01 0.01 0.02 0.02 0.02 0.02 0.02
0.00 0.00 0.00 0.00 0.00 0.00 0.00 0.00 0.00 0.00 0.00 0.00 0.00 0.00 0.00 0.00 0.00 0.00 0.00 0.00 0.00 0.00 0.00 0.00 0.00 0.00 0.01 0.01 0.01 0.01 0.01 0.01 0.00 0.00 0.00 0.00 0.00 0.00 0.01 0.01 0.01 0.01 0.01
0.00 0.00 0.00 0.00 0.00 0.00 0.00 0.00 0.00 0.00 0.00 0.00 0.00 0.00 0.00 0.00 0.00 0.00 0.00 0.00 0.00 0.00 0.00 0.00 0.00 0.00 0.01 0.01 0.01 0.01 0.01 0.00 0.00 0.00 0.00 0.00 0.00 0.00 0.00 0.01 0.01 0.01 0.01
0.00 0.00 0.00 0.00 0.00 0.00 0.00 0.00 0.00 0.00 0.00 0.00 0.00 0.00 0.00 0.00 0.00 0.00 0.00 0.00 0.00 0.00 0.00 0.00 0.00 0.00 0.00 0.00 0.00 0.01 0.01 0.01 0.01 0.01 0.01 0.01 0.01 0.01 0.01 0.01 0.01 0.01 0.01
0.00 0.00 0.00 0.00 0.00 0.00 0.00 0.00 0.00 0.00 0.00 0.00 0.00 0.00 0.00 0.00 0.00 0.00 0.00 0.00 0.00 0.00 0.00 0.00 0.00 0.00 0.00 0.00 0.00 0.00 0.00 0.01 0.02 0.02 0.02 0.01 0.01 0.01 0.01 0.01 0.01 0.02 0.01
0.00 0.00 0.00 0.00 0.00 0.00 0.00 0.00 0.00 0.00 0.00 0.00 0.00 0.00 0.00 0.00 0.00 0.00 0.00 0.00 0.00 0.00 0.00 0.00 0.00 0.00 0.00 0.00 0.00 0.00 0.00 0.01 0.02 0.02 0.02 0.01 0.02 0.02 0.01 0.01 0.01 0.02 0.02
0.00 0.00 0.00 0.00 0.00 0.00 0.00 0.00 0.00 0.00 0.00 0.00 0.00 0.00 0.00 0.00 0.00 0.00 0.00 0.00 0.00 0.00 0.00 0.00 0.00 0.00 0.00 0.00 0.00 0.00 0.00 0.00 0.01 0.02 0.02 0.02 0.02 0.02 0.02 0.02 0.02 0.02 0.02
0.00 0.00 0.00 0.00 0.00 0.00 0.00 0.00 0.00 0.00 0.00 0.00 0.00 0.00 0.00 0.00 0.00 0.00 0.00 0.00 0.00 0.00 0.00 0.00 0.00 0.00 0.00 0.01 0.00 0.00 0.00 0.00 0.01 0.02 0.03 0.03 0.02 0.02 0.02 0.03 0.04 0.05 0.03
0.00 0.00 0.00 0.00 0.00 0.00 0.00 0.00 0.00 0.00 0.00 0.00 0.00 0.00 0.00 0.00 0.00 0.00 0.00 0.00 0.00 0.01 0.00 0.00 0.00 0.00 0.00 0.01 0.01 0.00 0.00 0.01 0.01 0.01 0.01 0.02 0.02 0.02 0.02 0.03 0.05 0.05 0.05
0.00 0.00 0.00 0.00 0.00 0.00 0.00 0.00 0.00 0.00 0.00 0.00 0.00 0.00 0.00 0.00 0.00 0.00 0.00 0.00 0.00 0.01 0.01 0.00 0.00 0.00 0.00 0.01 0.01 0.00 0.01 0.01 0.01 0.01 0.01 0.01 0.01 0.02 0.02 0.02 0.04 0.06 0.05
0.00 0.00 0.00 0.00 0.00 0.00 0.00 0.00 0.00 0.00 0.00 0.00 0.00 0.00 0.00 0.00 0.00 0.00 0.00 0.00 0.00 0.01 0.00 0.00 0.00 0.00 0.00 0.00 0.01 0.00 0.01 0.01 0.01 0.00 0.01 0.01 0.02 0.02 0.02 0.02 0.02 0.04 0.06
0.00 0.00 0.00 0.00 0.00 0.00 0.00 0.00 0.00 0.00 0.00 0.00 0.00 0.00 0.00 0.00 0.00 0.00 0.00 0.00 0.01 0.01 0.00 0.00 0.00 0.00 0.00 0.00 0.00 0.01 0.01 0.01 0.01 0.01 0.01 0.01 0.01 0.01 0.02 0.03 0.03 0.02 0.04
0.00 0.00 0.00 0.00 0.00 0.00 0.00 0.00 0.00 0.00 0.00 0.00 0.00 0.00 0.00 0.00 0.00 0.00 0.00 0.00 0.01 0.00 0.00 0.00 0.00 0.00 0.00 0.00 0.01 0.02 0.02 0.01 0.00 0.01 0.01 0.01 0.01 0.01 0.01 0.03 0.03 0.02 0.03
0.00 0.00 0.00 0.00 0.00 0.00 0.00 0.00 0.00 0.00 0.00 0.00 0.00 0.00 0.00 0.00 0.00 0.00 0.00 0.00 0.00 0.00 0.00 0.00 0.00 0.00 0.00 0.00 0.01 0.02 0.02 0.01 0.00 0.00 0.00 0.01 0.01 0.01 0.01 0.02 0.03 0.03 0.02
0.00 0.00 0.00 0.00 0.00 0.00 0.00 0.00 0.00 0.00 0.00 0.00 0.00 0.00 0.00 0.00 0.00 0.00 0.00 0.00 0.00 0.00 0.00 0.00 0.00 0.00 0.00 0.00 0.00 0.01 0.01 0.01 0.00 0.00 0.00 0.00 0.00 0.01 0.01 0.02 0.03 0.03 0.02
0.00 0.00 0.00 0.00 0.00 0.00 0.00 0.00 0.00 0.00 0.00 0.00 0.00 0.00 0.00 0.00 0.00 0.00 0.00 0.00 0.00 0.00 0.00 0.00 0.00 0.00 0.00 0.00 0.00 0.00 0.00 0.01 0.00 0.00 0.00 0.00 0.00 0.01 0.01 0.01 0.02 0.03 0.03
0.00 0.00 0.00 0.00 0.00 0.00 0.00 0.00 0.00 0.00 0.00 0.00 0.00 0.00 0.00 0.00 0.00 0.00 0.00 0.00 0.00 0.00 0.00 0.00 0.00 0.00 0.00 0.00 0.00 0.00 0.00 0.00 0.00 0.00 0.00 0.00 0.00 0.01 0.01 0.01 0.02 0.02 0.02
0.00 0.00 0.00 0.00 0.00 0.00 0.00 0.00 0.00 0.00 0.00 0.00 0.00 0.00 0.00 0.00 0.00 0.00 0.00 0.00 0.00 0.00 0.00 0.00 0.00 0.00 0.00 0.00 0.00 0.00 0.00 0.00 0.00 0.00 0.00 0.00 0.00 0.01 0.01 0.01 0.02 0.02 0.02
0.00 0.00 0.00 0.00 0.00 0.00 0.00 0.00 0.00 0.00 0.00 0.00 0.00 0.00 0.00 0.00 0.00 0.00 0.00 0.00 0.00 0.00 0.00 0.00 0.00 0.00 0.00 0.00 0.00 0.00 0.00 0.00 0.00 0.00 0.00 0.00 0.00 0.01 0.01 0.01 0.02 0.02 0.03
0.00 0.00 0.00 0.00 0.00 0.00 0.00 0.00 0.00 0.00 0.00 0.00 0.00 0.00 0.00 0.00 0.00 0.00 0.00 0.00 0.00 0.00 0.00 0.00 0.00 0.00 0.00 0.00 0.00 0.00 0.00 0.00 0.00 0.00 0.00 0.01 0.01 0.01 0.01 0.01 0.01 0.02 0.03
0.00 0.00 0.00 0.00 0.00 0.00 0.00 0.00 0.00 0.00 0.00 0.00 0.00 0.00 0.00 0.00 0.00 0.00 0.00 0.00 0.00 0.00 0.00 0.00 0.00 0.00 0.00 0.00 0.00 0.00 0.00 0.00 0.00 0.00 0.00 0.01 0.01 0.01 0.01 0.01 0.01 0.02 0.02
0.00 0.00 0.00 0.00 0.00 0.00 0.00 0.00 0.00 0.00 0.00 0.00 0.00 0.00 0.00 0.00 0.00 0.00 0.00 0.00 0.00 0.00 0.00 0.00 0.00 0.00 0.00 0.00 0.00 0.00 0.00 0.00 0.00 0.00 0.01 0.01 0.01 0.02 0.01 0.01 0.01 0.02 0.02
0.00 0.00 0.00 0.00 0.00 0.00 0.00 0.00 0.00 0.00 0.00 0.00 0.00 0.00 0.00 0.00 0.00 0.00 0.00 0.00 0.00 0.00 0.00 0.00 0.00 0.00 0.00 0.00 0.00 0.00 0.00 0.00 0.00 0.00 0.01 0.01 0.01 0.02 0.03 0.02 0.02 0.02 0.03
0.00 0.00 0.00 0.00 0.00 0.00 0.00 0.00 0.00 0.00 0.00 0.00 0.00 0.00 0.00 0.00 0.00 0.00 0.00 0.00 0.00 0.00 0.00 0.00 0.00 0.00 0.00 0.00 0.00 0.00 0.00 0.00 0.00 0.00 0.01 0.01 0.02 0.02 0.03 0.04 0.03 0.03 0.04
0.00 0.00 0.00 0.00 0.00 0.00 0.00 0.00 0.00 0.00 0.00 0.00 0.00 0.00 0.00 0.00 0.00 0.00 0.00 0.00 0.00 0.00 0.00 0.00 0.00 0.00 0.00 0.00 0.00 0.00 0.00 0.00 0.00 0.01 0.01 0.02 0.02 0.03 0.03 0.04 0.05 0.05 0.05
MSLP
1016.10 1016.37 1016.67 1016.98 1017.26 1017.49 1017.68 1017.83 1017.96 1018.08 1018.20 1018.33 1018.46 1018.58 1018.67 1018.73 1018.74 1018.71 1018.65 1018.57 1018.49 1018.41 1018.34 1018.29 1018.24 1018.19 1018.13 1018.05 1017.96 1017.85 1017.74 1017.62 1017.51 1017.41 1017.31 1017.23 1017.15 1017.09 1017.04 1017.00 1017.00 1017.03 1017.09
1016.10 1016.32 1016.58 1016.85 1017.11 1017.33 1017.53 1017.70 1017.87 1018.03 1018.20 1018.37 1018.52 1018.66 1018.76 1018.83 1018.85 1018.83 1018.79 1018.74 1018.68 1018.64 1018.61 1018.60 1018.58 1018.56 1018.53 1018.48 1018.40 1018.31 1018.20 1018.09 1017.98 1017.87 1017.76 1017.66 1017.57 1017.47 1017.39 1017.33 1017.29 1017.27 1017.30
1016.11 1016.31 1016.53 1016.76 1016.98 1017.19 1017.39 1017.59 1017.79 1018.00 1018.21 1018.42 1018.61 1018.77 1018.88 1018.95 1018.98 1018.97 1018.93 1018.89 1018.86 1018.84 1018.84 1018.85 1018.87 1018.87 1018.87 1018.84 1018.78 1018.71 1018.63 1018.53 1018.43 1018.33 1018.23 1018.12 1018.02 1017.91 1017.81 1017.72 1017.64 1017.60 1017.58
1016.17 1016.35 1016.53 1016.71 1016.90 1017.09 1017.30 1017.52 1017.76 1018.01 1018.26 1018.50 1018.72 1018.90 1019.02 1019.09 1019.12 1019.11 1019.07 1019.04 1019.01 1019.00 1019.02 1019.04 1019.07 1019.10 1019.11 1019.10 1019.06 1019.01 1018.95 1018.88 1018.80 1018.72 1018.63 1018.53 1018.43 1018.32 1018.21 1018.10 1018.00 1017.92 1017.87
1016.28 1016.44 1016.59 1016.74 1016.90 1017.07 1017.28 1017.51 1017.77 1018.05 1018.34 1018.62 1018.85 1019.04 1019.17 1019.24 1019.26 1019.24 1019.20 1019.15 1019.12 1019.11 1019.13 1019.15 1019.19 1019.21 1019.23 1019.23 1019.21 1019.18 1019.13 1019.08 1019.03 1018.96 1018.90 1018.82 1018.72 1018.62 1018.50 1018.38 1018.27 1018.18 1018.10
1016.40 1016.57 1016.70 1016.83 1016.97 1017.13 1017.32 1017.56 1017.84 1018.14 1018.45 1018.74 1018.99 1019.18 1019.31 1019.37 1019.38 1019.34 1019.29 1019.24 1019.20 1019.18 1019.18 1019.20 1019.22 1019.24 1019.26 1019.25 1019.24 1019.21 1019.17 1019.13 1019.09 1019.05 1018.99 1018.92 1018.84 1018.74 1018.63 1018.51 1018.40 1018.30 1018.21
1016.50 1016.69 1016.83 1016.95 1017.08 1017.23 1017.43 1017.68 1017.96 1018.27 1018.58 1018.87 1019.12 1019.30 1019.42 1019.47 1019.47 1019.42 1019.36 1019.30 1019.25 1019.22 1019.21 1019.21 1019.22 1019.23 1019.22 1019.21 1019.18 1019.14 1019.10 1019.06 1019.02 1018.97 1018.93 1018.86 1018.78 1018.69 1018.58 1018.47 1018.36 1018.26 1018.18
1016.55 1016.77 1016.94 1017.08 1017.21 1017.38 1017.58 1017.83 1018.11 1018.41 1018.72 1019.00 1019.23 1019.40 1019.50 1019.54 1019.53 1019.48 1019.42 1019.36 1019.31 1019.27 1019.26 1019.25 1019.24 1019.22 1019.20 1019.16 1019.11 1019.05 1018.99 1018.93 1018.87 1018.82 1018.76 1018.68 1018.60 1018.50 1018.40 1018.29 1018.18 1018.09 1018.02
1016.50 1016.78 1016.99 1017.17 1017.34 1017.53 1017.75 1018.00 1018.28 1018.57 1018.86 1019.11 1019.32 1019.47 1019.56 1019.59 1019.58 1019.54 1019.50 1019.45 1019.41 1019.39 1019.37 1019.36 1019.34 1019.30 1019.25 1019.19 1019.10 1019.01 1018.92 1018.83 1018.74 1018.66 1018.57 1018.48 1018.38 1018.27 1018.15 1018.04 1017.94 1017.86 1017.79
1016.37 1016.71 1016.99 1017.22 1017.45 1017.67 1017.92 1018.18 1018.45 1018.73 1018.99 1019.22 1019.40 1019.53 1019.61 1019.64 1019.65 1019.63 1019.61 1019.60 1019.59 1019.58 1019.58 1019.57 1019.54 1019.50 1019.42 1019.33 1019.21 1019.09 1018.96 1018.83 1018.70 1018.58 1018.45 1018.33 1018.21 1018.08 1017.95 1017.83 1017.72 1017.63 1017.57
1016.17 1016.58 1016.93 1017.24 1017.52 1017.80 1018.07 1018.35 1018.62 1018.87 1019.11 1019.31 1019.47 1019.59 1019.66 1019.71 1019.74 1019.76 1019.79 1019.81 1019.84 1019.87 1019.88 1019.88 1019.86 1019.80 1019.70 1019.58 1019.43 1019.27 1019.11 1018.94 1018.77 1018.61 1018.46 1018.30 1018.15 1018.00 1017.85 1017.72 1017.59 1017.49 1017.41
1015.93 1016.41 1016.83 1017.21 1017.56 1017.88 1018.19 1018.48 1018.75 1018.99 1019.20 1019.38 1019.52 1019.64 1019.72 1019.80 1019.86 1019.93 1020.00 1020.07 1020.14 1020.20 1020.24 1020.25 1020.22 1020.15 1020.04 1019.89 1019.72 1019.53 1019.33 1019.13 1018.94 1018.75 1018.57 1018.40 1018.22 1018.05 1017.89 1017.73 1017.59 1017.46 1017.36
1015.69 1016.22 1016.70 1017.14 1017.55 1017.91 1018.25 1018.55 1018.81 1019.04 1019.24 1019.40 1019.54 1019.66 1019.77 1019.87 1019.98 1020.09 1020.21 1020.32 1020.43 1020.51 1020.57 1020.58 1020.55 1020.46 1020.34 1020.17 1019.98 1019.77 1019.55 1019.34 1019.13 1018.93 1018.74 1018.55 1018.37 1018.19 1018.02 1017.85 1017.69 1017.54 1017.41
1015.44 1016.01 1016.54 1017.02 1017.46 1017.85 1018.20 1018.51 1018.77 1018.99 1019.18 1019.34 1019.49 1019.62 1019.75 1019.89 1020.04 1020.19 1020.34 1020.49 1020.62 1020.71 1020.77 1020.77 1020.72 1020.62 1020.48 1020.30 1020.09 1019.88 1019.66 1019.45 1019.24 1019.05 1018.87 1018.69 1018.52 1018.35 1018.17 1018.00 1017.83 1017.66 1017.50
1015.17 1015.75 1016.30 1016.80 1017.25 1017.66 1018.01 1018.32 1018.58 1018.80 1018.99 1019.15 1019.31 1019.46 1019.62 1019.79 1019.97 1020.15 1020.33 1020.49 1020.62 1020.70 1020.74 1020.72 1020.65 1020.53 1020.36 1020.17 1019.97 1019.76 1019.55 1019.36 1019.18 1019.02 1018.86 1018.72 1018.57 1018.42 1018.26 1018.10 1017.93 1017.76 1017.57
1014.84 1015.41 1015.94 1016.44 1016.89 1017.28 1017.63 1017.93 1018.19 1018.41 1018.60 1018.79 1018.96 1019.14 1019.33 1019.52 1019.72 1019.91 1020.09 1020.24 1020.35 1020.41 1020.42 1020.36 1020.26 1020.11 1019.93 1019.74 1019.54 1019.35 1019.17 1019.02 1018.88 1018.76 1018.65 1018.54 1018.43 1018.31 1018.19 1018.05 1017.89 1017.72 1017.54
1014.41 1014.95 1015.45 1015.91 1016.33 1016.71 1017.04 1017.34 1017.59 1017.82 1018.03 1018.23 1018.43 1018.63 1018.84 1019.05 1019.25 1019.44 1019.60 1019.73 1019.80 1019.82 1019.78 1019.69 1019.56 1019.39 1019.20 1019.01 1018.83 1018.67 1018.53 1018.42 1018.33 1018.26 1018.20 1018.13 1018.07 1017.99 1017.90 1017.79 1017.66 1017.52 1017.35
1013.87 1014.35 1014.80 1015.22 1015.61 1015.96 1016.27 1016.56 1016.81 1017.05 1017.28 1017.50 1017.72 1017.94 1018.16 1018.37 1018.56 1018.73 1018.86 1018.95 1018.97 1018.95 1018.87 1018.74 1018.59 1018.41 1018.22 1018.05 1017.90 1017.78 1017.68 1017.62 1017.58 1017.56 1017.54 1017.52 1017.50 1017.45 1017.40 1017.32 1017.22 1017.11 1016.96
1013.23 1013.64 1014.03 1014.40 1014.75 1015.07 1015.37 1015.65 1015.91 1016.16 1016.40 1016.64 1016.87 1017.10 1017.31 1017.51 1017.69 1017.82 1017.91 1017.95 1017.93 1017.87 1017.75 1017.61 1017.44 1017.26 1017.10 1016.96 1016.84 1016.76 1016.72 1016.70 1016.70 1016.72 1016.74 1016.75 1016.75 1016.73 1016.70 1016.65 1016.58 1016.50 1016.39
1012.54 1012.89 1013.22 1013.54 1013.85 1014.15 1014.43 1014.70 1014.97 1015.22 1015.47 1015.71 1015.94 1016.16 1016.36 1016.53 1016.67 1016.77 1016.82 1016.81 1016.76 1016.66 1016.53 1016.38 1016.22 1016.07 1015.93 1015.83 1015.76 1015.73 1015.72 1015.75 1015.78 1015.82 1015.86 1015.88 1015.89 1015.89 1015.86 1015.83 1015.78 1015.72 1015.65
1011.90 1012.18 1012.47 1012.74 1013.02 1013.29 1013.55 1013.81 1014.07 1014.32 1014.56 1014.79 1015.01 1015.20 1015.37 1015.50 1015.60 1015.65 1015.66 1015.62 1015.54 1015.43 1015.30 1015.16 1015.02 1014.91 1014.82 1014.76 1014.73 1014.74 1014.78 1014.82 1014.88 1014.92 1014.96 1014.98 1014.98 1014.97 1014.94 1014.90 1014.87 1014.82 1014.78
1011.39 1011.62 1011.86 1012.10 1012.34 1012.58 1012.83 1013.07 1013.30 1013.53 1013.75 1013.94 1014.12 1014.28 1014.40 1014.49 1014.53 1014.54 1014.51 1014.45 1014.36 1014.25 1014.13 1014.02 1013.92 1013.85 1013.80 1013.79 1013.81 1013.85 1013.91 1013.96 1014.02 1014.06 1014.08 1014.07 1014.05 1014.01 1013.97 1013.92 1013.88 1013.85 1013.83
1011.09 1011.29 1011.48 1011.69 1011.90 1012.10 1012.31 1012.52 1012.72 1012.90 1013.07 1013.22 1013.34 1013.44 1013.50 1013.54 1013.54 1013.51 1013.45 1013.37 1013.28 1013.18 1013.09 1013.01 1012.95 1012.92 1012.92 1012.94 1012.99 1013.05 1013.11 1013.17 1013.21 1013.22 1013.21 1013.18 1013.12 1013.05 1012.98 1012.91 1012.86 1012.82 1012.81
1011.04 1011.20 1011.36 1011.52 1011.69 1011.85 1012.01 1012.17 1012.31 1012.43 1012.54 1012.62 1012.68 1012.71 1012.72 1012.70 1012.66 1012.60 1012.52 1012.43 1012.34 1012.26 1012.19 1012.14 1012.12 1012.12 1012.15 1012.20 1012.26 1012.32 1012.37 1012.40 1012.41 1012.40 1012.35 1012.27 1012.18 1012.08 1011.98 1011.89 1011.82 1011.77 1011.76
1011.19 1011.32 1011.44 1011.56 1011.67 1011.78 1011.88 1011.97 1012.04 1012.09 1012.12 1012.14 1012.13 1012.10 1012.05 1011.99 1011.92 1011.83 1011.74 1011.65 1011.57 1011.50 1011.45 1011.43 1011.42 1011.44 1011.47 1011.52 1011.57 1011.61 1011.63 1011.64 1011.61 1011.55 1011.46 1011.35 1011.22 1011.09 1010.96 1010.85 1010.77 1010.71 1010.68
1011.49 1011.57 1011.65 1011.72 1011.78 1011.82 1011.85 1011.86 1011.85 1011.83 1011.80 1011.74 1011.68 1011.60 1011.52 1011.42 1011.33 1011.23 1011.13 1011.04 1010.97 1010.90 1010.86 1010.83 1010.82 1010.83 1010.85 1010.87 1010.89 1010.89 1010.88 1010.84 1010.77 1010.67 1010.55 1010.40 1010.25 1010.09 1009.94 1009.81 1009.70 1009.63 1009.59
Thickness
5727 5725 5723 5721 5720 5719 5718 5716 5715 5715 5713 5711 5710 5709 5707 5705 5703 5700 5700 5698 5697 5696 5695 5693 5691 5691 5691 5690 5690 5690 5689 5689 5687 5690 5692 5693 5694 5695 5696 5697 5698 5700 5701
5725 5723 5722 5720 5719 5718 5716 5715 5715 5714 5713 5711 5709 5707 5706 5703 5702 5699 5697 5696 5695 5694 5693 5692 5691 5689 5688 5688 5687 5687 5686 5686 5685 5684 5688 5689 5690 5691 5692 5693 5695 5696 5697
5723 5722 5721 5719 5718 5717 5715 5713 5713 5711 5710 5710 5708 5706 5704 5702 5700 5698 5696 5695 5694 5692 5691 5690 5689 5688 5686 5685 5684 5684 5683 5683 5682 5682 5683 5684 5686 5688 5688 5689 5692 5692 5693
5721 5720 5719 5717 5716 5715 5714 5711 5710 5709 5708 5707 5705 5703 5701 5700 5698 5697 5695 5693 5692 5690 5689 5687 5686 5684 5683 5682 5681 5680 5679 5679 5678 5678 5679 5680 5680 5682 5683 5683 5685 5688 5689
5720 5718 5716 5715 5713 5711 5709 5707 5706 5705 5704 5702 5701 5700 5698 5695 5693 5692 5691 5690 5689 5687 5686 5684 5680 5676 5674 5673 5673 5674 5673 5673 5673 5672 5672 5673 5674 5674 5675 5677 5678 5681 5684
5718 5716 5713 5712 5710 5708 5707 5705 5703 5701 5700 5698 5697 5694 5692 5689 5684 5682 5683 5685 5684 5682 5681 5679 5676 5674 5670 5667 5665 5664 5663 5664 5664 5664 5664 5665 5666 5667 5667 5668 5671 5672 5674
5717 5714 5711 5709 5706 5705 5703 5700 5698 5696 5694 5692 5690 5688 5687 5683 5678 5677 5676 5678 5678 5676 5675 5674 5671 5668 5665 5665 5663 5659 5657 5654 5652 5653 5655 5656 5657 5658 5658 5660 5662 5663 5664
5716 5712 5709 5706 5703 5701 5698 5696 5694 5693 5690 5687 5685 5683 5681 5677 5673 5671 5670 5672 5672 5670 5668 5667 5665 5662 5657 5655 5657 5655 5653 5650 5647 5646 5646 5646 5646 5646 5647 5649 5651 5654 5658
5714 5710 5707 5704 5700 5698 5695 5693 5692 5689 5686 5684 5680 5678 5676 5673 5668 5666 5664 5667 5666 5664 5661 5658 5656 5654 5646 5645 5647 5647 5645 5643 5638 5635 5633 5633 5633 5633 5634 5638 5642 5644 5648
5712 5709 5705 5702 5698 5695 5692 5690 5687 5684 5681 5678 5675 5673 5671 5669 5662 5659 5657 5661 5660 5657 5654 5651 5645 5642 5638 5635 5638 5637 5635 5634 5632 5631 5628 5627 5627 5627 5625 5627 5630 5631 5635
5710 5706 5701 5698 5695 5692 5688 5685 5682 5679 5676 5674 5671 5668 5665 5662 5656 5652 5649 5652 5651 5650 5647 5645 5640 5633 5629 5627 5625 5626 5622 5620 5622 5622 5621 5621 5620 5619 5619 5618 5618 5618 5621
5705 5700 5697 5693 5690 5687 5682 5679 5677 5673 5670 5667 5666 5663 5660 5656 5650 5646 5642 5641 5639 5640 5638 5635 5631 5624 5621 5618 5617 5614 5611 5610 5613 5613 5612 5611 5610 5609 5608 5608 5607 5607 5609
5700 5695 5692 5688 5685 5682 5678 5674 5671 5668 5666 5664 5661 5658 5655 5651 5646 5639 5636 5633 5630 5629 5628 5624 5619 5615 5612 5612 5609 5605 5603 5604 5603 5602 5601 5600 5599 5598 5597 5596 5597 5597 5597
5696 5692 5688 5685 5680 5677 5673 5670 5667 5664 5661 5658 5655 5652 5649 5645 5641 5637 5633 5629 5623 5621 5620 5616 5611 5607 5604 5602 5601 5600 5598 5595 5592 5591 5590 5589 5588 5587 5586 5585 5585 5586 5587
5692 5687 5683 5680 5676 5672 5668 5664 5662 5659 5656 5651 5649 5645 5641 5638 5634 5627 5624 5622 5619 5615 5612 5609 5607 5604 5601 5598 5596 5593 5590 5587 5584 5582 5580 5579 5578 5577 5576 5573 5572 5572 5573
5687 5683 5678 5674 5670 5666 5662 5657 5651 5648 5644 5640 5636 5634 5632 5627 5622 5617 5613 5609 5606 5602 5600 5601 5599 5596 5593 5590 5587 5585 5582 5578 5576 5573 5571 5568 5566 5565 5563 5561 5559 5558 5558
5682 5678 5673 5668 5664 5660 5656 5652 5647 5640 5634 5630 5627 5623 5620 5617 5612 5608 5604 5600 5596 5592 5592 5592 5590 5588 5585 5581 5578 5576 5573 5569 5566 5563 5560 5557 5554 5552 5549 5547 5545 5543 5542
5676 5670 5665 5661 5657 5653 5650 5646 5642 5637 5632 5627 5621 5615 5611 5607 5603 5599 5594 5590 5590 5587 5586 5584 5582 5578 5575 5572 5569 5565 5562 5559 5555 5551 5548 5544 5541 5537 5535 5532 5530 5527 5526
5668 5663 5658 5654 5650 5646 5642 5637 5633 5629 5626 5622 5617 5611 5604 5599 5594 5590 5585 5583 5584 5582 5579 5576 5572 5569 5565 5562 5558 5554 5551 5547 5543 5539 5535 5531 5527 5523 5520 5517 5514 5512 5508
5659 5653 5649 5645 5641 5637 5632 5629 5625 5621 5617 5614 5609 5605 5599 5593 5590 5586 5580 5578 5575 5573 5570 5566 5563 5558 5555 5551 5547 5542 5538 5535 5530 5526 5522 5518 5513 5509 5505 5502 5500 5497 5495
5650 5644 5637 5635 5632 5629 5624 5620 5616 5612 5608 5605 5601 5597 5589 5585 5583 5579 5575 5571 5567 5563 5560 5555 5551 5547 5542 5538 5534 5530 5525 5521 5517 5512 5507 5502 5498 5494 5491 5488 5486 5483 5481
5641 5637 5631 5627 5623 5619 5615 5611 5607 5603 5599 5595 5591 5586 5577 5574 5572 5569 5565 5561 5557 5553 5548 5543 5539 5534 5529 5525 5520 5515 5511 5507 5501 5496 5492 5487 5483 5480 5477 5474 5472 5470 5468
5630 5627 5622 5618 5614 5608 5604 5601 5598 5594 5590 5586 5581 5576 5571 5566 5563 5559 5555 5550 5545 5540 5535 5530 5526 5521 5515 5510 5504 5499 5495 5491 5486 5480 5476 5472 5469 5466 5463 5461 5459 5457 5456
5618 5615 5611 5608 5603 5600 5595 5591 5588 5583 5579 5575 5570 5566 5561 5557 5552 5548 5543 5538 5533 5528 5522 5517 5512 5508 5502 5496 5490 5484 5479 5474 5468 5463 5459 5455 5453 5452 5450 5448 5447 5445 5444
5606 5603 5599 5596 5592 5588 5584 5581 5577 5573 5568 5563 5559 5555 5550 5545 5541 5536 5530 5525 5520 5515 5510 5504 5498 5493 5488 5482 5476 5470 5465 5458 5451 5446 5442 5440 5440 5439 5437 5436 5435 5434 5434
5593 5590 5587 5583 5580 5576 5572 5568 5565 5560 5556 5551 5547 5542 5537 5532 5527 5522 5517 5512 5506 5501 5496 5490 5485 5479 5473 5468 5463 5457 5451 5445 5439 5433 5428 5427 5428 5428 5426 5425 5425 5424 5424